<?xml version="1.0" encoding="UTF-8"?>
<gpx
version="1.1"
creator="Kashmir3D 9.350 - http://www.kashmir3d.com"
xmlns:xsi="http://www.w3.org/2001/XMLSchema-instance"
xmlns="http://www.topografix.com/GPX/1/1"
xmlns:kashmir3d="http://www.kashmir3d.com/namespace/kashmir3d"
xsi:schemaLocation="http://www.topografix.com/GPX/1/1 http://www.topografix.com/GPX/1/1/gpx.xsd
	http://www.kashmir3d.com/namespace/kashmir3d http://www.kashmir3d.com/namespace/kashmir3d.xsd">
<trk>
 <name>IWAGAMISAN.KML(岩神山)</name>
 <number>1</number>
 <extensions>
 <kashmir3d:line_color>0000ff</kashmir3d:line_color>
 <kashmir3d:line_size>3</kashmir3d:line_size>
 <kashmir3d:line_style>1</kashmir3d:line_style>
 <kashmir3d:icon>901001</kashmir3d:icon>
 </extensions>
<trkseg>
<trkpt lat="34.262477" lon="135.207092">
 <ele>14.8</ele>
 <time>2020-03-24T13:52:22Z</time>
</trkpt>
<trkpt lat="34.262511" lon="135.206899">
 <ele>14.5</ele>
 <time>2020-03-24T13:52:22Z</time>
</trkpt>
<trkpt lat="34.262606" lon="135.206641">
 <ele>14.3</ele>
 <time>2020-03-24T13:52:22Z</time>
</trkpt>
<trkpt lat="34.262674" lon="135.206459">
 <ele>14.1</ele>
 <time>2020-03-24T13:52:22Z</time>
</trkpt>
<trkpt lat="34.262666" lon="135.206362">
 <ele>13.9</ele>
 <time>2020-03-24T13:52:22Z</time>
</trkpt>
<trkpt lat="34.262777" lon="135.206341">
 <ele>14.1</ele>
 <time>2020-03-24T13:52:22Z</time>
</trkpt>
<trkpt lat="34.262932" lon="135.206416">
 <ele>14.3</ele>
 <time>2020-03-24T13:52:22Z</time>
</trkpt>
<trkpt lat="34.263146" lon="135.206512">
 <ele>14.8</ele>
 <time>2020-03-24T13:52:23Z</time>
</trkpt>
<trkpt lat="34.263455" lon="135.206555">
 <ele>15.3</ele>
 <time>2020-03-24T13:52:23Z</time>
</trkpt>
<trkpt lat="34.263756" lon="135.206545">
 <ele>15.8</ele>
 <time>2020-03-24T13:52:23Z</time>
</trkpt>
<trkpt lat="34.263850" lon="135.206523">
 <ele>16.2</ele>
 <time>2020-03-24T13:52:23Z</time>
</trkpt>
<trkpt lat="34.263867" lon="135.206276">
 <ele>15.6</ele>
 <time>2020-03-24T13:52:23Z</time>
</trkpt>
<trkpt lat="34.263910" lon="135.206115">
 <ele>15.4</ele>
 <time>2020-03-24T13:52:23Z</time>
</trkpt>
<trkpt lat="34.263970" lon="135.205965">
 <ele>15.2</ele>
 <time>2020-03-24T13:52:23Z</time>
</trkpt>
<trkpt lat="34.264339" lon="135.205987">
 <ele>15.5</ele>
 <time>2020-03-24T13:52:23Z</time>
</trkpt>
<trkpt lat="34.264545" lon="135.205997">
 <ele>16.1</ele>
 <time>2020-03-24T13:52:23Z</time>
</trkpt>
<trkpt lat="34.264648" lon="135.205997">
 <ele>16.1</ele>
 <time>2020-03-24T13:52:23Z</time>
</trkpt>
<trkpt lat="34.264709" lon="135.205901">
 <ele>15.9</ele>
 <time>2020-03-24T13:52:24Z</time>
</trkpt>
<trkpt lat="34.264786" lon="135.205579">
 <ele>15.4</ele>
 <time>2020-03-24T13:52:24Z</time>
</trkpt>
<trkpt lat="34.264854" lon="135.205397">
 <ele>15</ele>
 <time>2020-03-24T13:52:24Z</time>
</trkpt>
<trkpt lat="34.264949" lon="135.205225">
 <ele>13.2</ele>
 <time>2020-03-24T13:52:24Z</time>
</trkpt>
<trkpt lat="34.265043" lon="135.205161">
 <ele>12.9</ele>
 <time>2020-03-24T13:52:24Z</time>
</trkpt>
<trkpt lat="34.265086" lon="135.205075">
 <ele>12.7</ele>
 <time>2020-03-24T13:52:24Z</time>
</trkpt>
<trkpt lat="34.265138" lon="135.205000">
 <ele>13</ele>
 <time>2020-03-24T13:52:24Z</time>
</trkpt>
<trkpt lat="34.265241" lon="135.204946">
 <ele>13.4</ele>
 <time>2020-03-24T13:52:24Z</time>
</trkpt>
<trkpt lat="34.265327" lon="135.204935">
 <ele>14</ele>
 <time>2020-03-24T13:52:24Z</time>
</trkpt>
<trkpt lat="34.265387" lon="135.204806">
 <ele>14.8</ele>
 <time>2020-03-24T13:52:24Z</time>
</trkpt>
<trkpt lat="34.265447" lon="135.204646">
 <ele>15.5</ele>
 <time>2020-03-24T13:52:25Z</time>
</trkpt>
<trkpt lat="34.265507" lon="135.204463">
 <ele>15.6</ele>
 <time>2020-03-24T13:52:25Z</time>
</trkpt>
<trkpt lat="34.265567" lon="135.204399">
 <ele>15.6</ele>
 <time>2020-03-24T13:52:25Z</time>
</trkpt>
<trkpt lat="34.265704" lon="135.204463">
 <ele>15.8</ele>
 <time>2020-03-24T13:52:25Z</time>
</trkpt>
<trkpt lat="34.265902" lon="135.204474">
 <ele>16.3</ele>
 <time>2020-03-24T13:52:25Z</time>
</trkpt>
<trkpt lat="34.266090" lon="135.204538">
 <ele>17.2</ele>
 <time>2020-03-24T13:52:25Z</time>
</trkpt>
<trkpt lat="34.266211" lon="135.204581">
 <ele>17.4</ele>
 <time>2020-03-24T13:52:25Z</time>
</trkpt>
<trkpt lat="34.266305" lon="135.204635">
 <ele>17.9</ele>
 <time>2020-03-24T13:52:25Z</time>
</trkpt>
<trkpt lat="34.266425" lon="135.204635">
 <ele>18.2</ele>
 <time>2020-03-24T13:52:25Z</time>
</trkpt>
<trkpt lat="34.266571" lon="135.204688">
 <ele>18.3</ele>
 <time>2020-03-24T13:52:26Z</time>
</trkpt>
<trkpt lat="34.266666" lon="135.204710">
 <ele>18.7</ele>
 <time>2020-03-24T13:52:26Z</time>
</trkpt>
<trkpt lat="34.266674" lon="135.204592">
 <ele>18.6</ele>
 <time>2020-03-24T13:52:26Z</time>
</trkpt>
<trkpt lat="34.266683" lon="135.204495">
 <ele>18.6</ele>
 <time>2020-03-24T13:52:26Z</time>
</trkpt>
<trkpt lat="34.266743" lon="135.204291">
 <ele>19</ele>
 <time>2020-03-24T13:52:26Z</time>
</trkpt>
<trkpt lat="34.266786" lon="135.204163">
 <ele>19.5</ele>
 <time>2020-03-24T13:52:26Z</time>
</trkpt>
<trkpt lat="34.266811" lon="135.203937">
 <ele>20</ele>
 <time>2020-03-24T13:52:26Z</time>
</trkpt>
<trkpt lat="34.266854" lon="135.203508">
 <ele>20.1</ele>
 <time>2020-03-24T13:52:26Z</time>
</trkpt>
<trkpt lat="34.266880" lon="135.203315">
 <ele>19.8</ele>
 <time>2020-03-24T13:52:26Z</time>
</trkpt>
<trkpt lat="34.266932" lon="135.203101">
 <ele>19.5</ele>
 <time>2020-03-24T13:52:26Z</time>
</trkpt>
<trkpt lat="34.266966" lon="135.202961">
 <ele>19.8</ele>
 <time>2020-03-24T13:52:27Z</time>
</trkpt>
<trkpt lat="34.266966" lon="135.202875">
 <ele>19</ele>
 <time>2020-03-24T13:52:27Z</time>
</trkpt>
<trkpt lat="34.267009" lon="135.202822">
 <ele>18.5</ele>
 <time>2020-03-24T13:52:27Z</time>
</trkpt>
<trkpt lat="34.267129" lon="135.202789">
 <ele>17.5</ele>
 <time>2020-03-24T13:52:27Z</time>
</trkpt>
<trkpt lat="34.267215" lon="135.202811">
 <ele>17.4</ele>
 <time>2020-03-24T13:52:27Z</time>
</trkpt>
<trkpt lat="34.267386" lon="135.202843">
 <ele>18.4</ele>
 <time>2020-03-24T13:52:27Z</time>
</trkpt>
<trkpt lat="34.267447" lon="135.202822">
 <ele>18.9</ele>
 <time>2020-03-24T13:52:27Z</time>
</trkpt>
<trkpt lat="34.267472" lon="135.202629">
 <ele>19.8</ele>
 <time>2020-03-24T13:52:27Z</time>
</trkpt>
<trkpt lat="34.267507" lon="135.202435">
 <ele>23.1</ele>
 <time>2020-03-24T13:52:27Z</time>
</trkpt>
<trkpt lat="34.267541" lon="135.202285">
 <ele>23.5</ele>
 <time>2020-03-24T13:52:27Z</time>
</trkpt>
<trkpt lat="34.267653" lon="135.202328">
 <ele>24.6</ele>
 <time>2020-03-24T13:52:28Z</time>
</trkpt>
<trkpt lat="34.267730" lon="135.202339">
 <ele>24.7</ele>
 <time>2020-03-24T13:52:28Z</time>
</trkpt>
<trkpt lat="34.267893" lon="135.202435">
 <ele>25.8</ele>
 <time>2020-03-24T13:52:28Z</time>
</trkpt>
<trkpt lat="34.268065" lon="135.202521">
 <ele>26.8</ele>
 <time>2020-03-24T13:52:28Z</time>
</trkpt>
<trkpt lat="34.268236" lon="135.202586">
 <ele>27.9</ele>
 <time>2020-03-24T13:52:28Z</time>
</trkpt>
<trkpt lat="34.268339" lon="135.202639">
 <ele>28.8</ele>
 <time>2020-03-24T13:52:28Z</time>
</trkpt>
<trkpt lat="34.268459" lon="135.202639">
 <ele>30.7</ele>
 <time>2020-03-24T13:52:28Z</time>
</trkpt>
<trkpt lat="34.268657" lon="135.202714">
 <ele>33.8</ele>
 <time>2020-03-24T13:52:28Z</time>
</trkpt>
<trkpt lat="34.268743" lon="135.202768">
 <ele>35.2</ele>
 <time>2020-03-24T13:52:28Z</time>
</trkpt>
<trkpt lat="34.268743" lon="135.202918">
 <ele>35.8</ele>
 <time>2020-03-24T13:52:28Z</time>
</trkpt>
<trkpt lat="34.268803" lon="135.202983">
 <ele>36.7</ele>
 <time>2020-03-24T13:52:29Z</time>
</trkpt>
<trkpt lat="34.268957" lon="135.203079">
 <ele>36</ele>
 <time>2020-03-24T13:52:29Z</time>
</trkpt>
<trkpt lat="34.269043" lon="135.203176">
 <ele>35.7</ele>
 <time>2020-03-24T13:52:29Z</time>
</trkpt>
<trkpt lat="34.269077" lon="135.203294">
 <ele>34.7</ele>
 <time>2020-03-24T13:52:29Z</time>
</trkpt>
<trkpt lat="34.269120" lon="135.203401">
 <ele>34.6</ele>
 <time>2020-03-24T13:52:29Z</time>
</trkpt>
<trkpt lat="34.269155" lon="135.203519">
 <ele>35</ele>
 <time>2020-03-24T13:52:29Z</time>
</trkpt>
<trkpt lat="34.269249" lon="135.203562">
 <ele>36.5</ele>
 <time>2020-03-24T13:52:29Z</time>
</trkpt>
<trkpt lat="34.269335" lon="135.203583">
 <ele>37.8</ele>
 <time>2020-03-24T13:52:29Z</time>
</trkpt>
<trkpt lat="34.269421" lon="135.203605">
 <ele>40.3</ele>
 <time>2020-03-24T13:52:29Z</time>
</trkpt>
<trkpt lat="34.269515" lon="135.203626">
 <ele>41.2</ele>
 <time>2020-03-24T13:52:30Z</time>
</trkpt>
<trkpt lat="34.269609" lon="135.203605">
 <ele>43.5</ele>
 <time>2020-03-24T13:52:30Z</time>
</trkpt>
<trkpt lat="34.269773" lon="135.203583">
 <ele>46.1</ele>
 <time>2020-03-24T13:52:30Z</time>
</trkpt>
<trkpt lat="34.269936" lon="135.203573">
 <ele>48.6</ele>
 <time>2020-03-24T13:52:30Z</time>
</trkpt>
<trkpt lat="34.270039" lon="135.203551">
 <ele>49.8</ele>
 <time>2020-03-24T13:52:30Z</time>
</trkpt>
<trkpt lat="34.270150" lon="135.203498">
 <ele>52.7</ele>
 <time>2020-03-24T13:52:30Z</time>
</trkpt>
<trkpt lat="34.270356" lon="135.203272">
 <ele>55.8</ele>
 <time>2020-03-24T13:52:30Z</time>
</trkpt>
<trkpt lat="34.270399" lon="135.203186">
 <ele>56.3</ele>
 <time>2020-03-24T13:52:30Z</time>
</trkpt>
<trkpt lat="34.270511" lon="135.203058">
 <ele>57.1</ele>
 <time>2020-03-24T13:52:30Z</time>
</trkpt>
<trkpt lat="34.270614" lon="135.202961">
 <ele>55.9</ele>
 <time>2020-03-24T13:52:30Z</time>
</trkpt>
<trkpt lat="34.270691" lon="135.202897">
 <ele>54.7</ele>
 <time>2020-03-24T13:52:31Z</time>
</trkpt>
<trkpt lat="34.270682" lon="135.202747">
 <ele>54.2</ele>
 <time>2020-03-24T13:52:31Z</time>
</trkpt>
<trkpt lat="34.270588" lon="135.202511">
 <ele>52.5</ele>
 <time>2020-03-24T13:52:31Z</time>
</trkpt>
<trkpt lat="34.270476" lon="135.202103">
 <ele>47.4</ele>
 <time>2020-03-24T13:52:31Z</time>
</trkpt>
<trkpt lat="34.270494" lon="135.201974">
 <ele>48</ele>
 <time>2020-03-24T13:52:31Z</time>
</trkpt>
<trkpt lat="34.270528" lon="135.201899">
 <ele>48.4</ele>
 <time>2020-03-24T13:52:31Z</time>
</trkpt>
<trkpt lat="34.270579" lon="135.201878">
 <ele>48.7</ele>
 <time>2020-03-24T13:52:31Z</time>
</trkpt>
<trkpt lat="34.270631" lon="135.201942">
 <ele>50.7</ele>
 <time>2020-03-24T13:52:31Z</time>
</trkpt>
<trkpt lat="34.270631" lon="135.202038">
 <ele>52</ele>
 <time>2020-03-24T13:52:31Z</time>
</trkpt>
<trkpt lat="34.270639" lon="135.202124">
 <ele>53.4</ele>
 <time>2020-03-24T13:52:31Z</time>
</trkpt>
<trkpt lat="34.270639" lon="135.202221">
 <ele>55.6</ele>
 <time>2020-03-24T13:52:32Z</time>
</trkpt>
<trkpt lat="34.270700" lon="135.202328">
 <ele>59.1</ele>
 <time>2020-03-24T13:52:32Z</time>
</trkpt>
<trkpt lat="34.270751" lon="135.202307">
 <ele>61.1</ele>
 <time>2020-03-24T13:52:32Z</time>
</trkpt>
<trkpt lat="34.270828" lon="135.202285">
 <ele>61.6</ele>
 <time>2020-03-24T13:52:32Z</time>
</trkpt>
<trkpt lat="34.270914" lon="135.202296">
 <ele>64.2</ele>
 <time>2020-03-24T13:52:32Z</time>
</trkpt>
<trkpt lat="34.270974" lon="135.202156">
 <ele>63.4</ele>
 <time>2020-03-24T13:52:32Z</time>
</trkpt>
<trkpt lat="34.271009" lon="135.202038">
 <ele>63</ele>
 <time>2020-03-24T13:52:32Z</time>
</trkpt>
<trkpt lat="34.271077" lon="135.201910">
 <ele>64.1</ele>
 <time>2020-03-24T13:52:32Z</time>
</trkpt>
<trkpt lat="34.271094" lon="135.201813">
 <ele>61.7</ele>
 <time>2020-03-24T13:52:32Z</time>
</trkpt>
<trkpt lat="34.271103" lon="135.201749">
 <ele>60.6</ele>
 <time>2020-03-24T13:52:33Z</time>
</trkpt>
<trkpt lat="34.271086" lon="135.201663">
 <ele>60.2</ele>
 <time>2020-03-24T13:52:33Z</time>
</trkpt>
<trkpt lat="34.270966" lon="135.201534">
 <ele>58.3</ele>
 <time>2020-03-24T13:52:33Z</time>
</trkpt>
<trkpt lat="34.270863" lon="135.201427">
 <ele>58.7</ele>
 <time>2020-03-24T13:52:33Z</time>
</trkpt>
<trkpt lat="34.270794" lon="135.201309">
 <ele>57.4</ele>
 <time>2020-03-24T13:52:33Z</time>
</trkpt>
<trkpt lat="34.270734" lon="135.201169">
 <ele>62.9</ele>
 <time>2020-03-24T13:52:33Z</time>
</trkpt>
<trkpt lat="34.270682" lon="135.201051">
 <ele>64.1</ele>
 <time>2020-03-24T13:52:33Z</time>
</trkpt>
<trkpt lat="34.270631" lon="135.200923">
 <ele>66</ele>
 <time>2020-03-24T13:52:33Z</time>
</trkpt>
<trkpt lat="34.270597" lon="135.200815">
 <ele>67.1</ele>
 <time>2020-03-24T13:52:33Z</time>
</trkpt>
<trkpt lat="34.270579" lon="135.200687">
 <ele>66.7</ele>
 <time>2020-03-24T13:52:34Z</time>
</trkpt>
<trkpt lat="34.270614" lon="135.200601">
 <ele>65.6</ele>
 <time>2020-03-24T13:52:34Z</time>
</trkpt>
<trkpt lat="34.270708" lon="135.200536">
 <ele>65.3</ele>
 <time>2020-03-24T13:52:34Z</time>
</trkpt>
<trkpt lat="34.270777" lon="135.200483">
 <ele>65.3</ele>
 <time>2020-03-24T13:52:34Z</time>
</trkpt>
<trkpt lat="34.270820" lon="135.200375">
 <ele>66.2</ele>
 <time>2020-03-24T13:52:34Z</time>
</trkpt>
<trkpt lat="34.270845" lon="135.200311">
 <ele>69.2</ele>
 <time>2020-03-24T13:52:34Z</time>
</trkpt>
<trkpt lat="34.270837" lon="135.200236">
 <ele>70.6</ele>
 <time>2020-03-24T13:52:34Z</time>
</trkpt>
<trkpt lat="34.270803" lon="135.200193">
 <ele>67.9</ele>
 <time>2020-03-24T13:52:34Z</time>
</trkpt>
<trkpt lat="34.270794" lon="135.200107">
 <ele>66.3</ele>
 <time>2020-03-24T13:52:34Z</time>
</trkpt>
<trkpt lat="34.270777" lon="135.200064">
 <ele>66.3</ele>
 <time>2020-03-24T13:52:34Z</time>
</trkpt>
<trkpt lat="34.270777" lon="135.199978">
 <ele>66</ele>
 <time>2020-03-24T13:52:35Z</time>
</trkpt>
<trkpt lat="34.270837" lon="135.199925">
 <ele>66</ele>
 <time>2020-03-24T13:52:35Z</time>
</trkpt>
<trkpt lat="34.270948" lon="135.199978">
 <ele>62.8</ele>
 <time>2020-03-24T13:52:35Z</time>
</trkpt>
<trkpt lat="34.271077" lon="135.200043">
 <ele>64.7</ele>
 <time>2020-03-24T13:52:35Z</time>
</trkpt>
<trkpt lat="34.271120" lon="135.200064">
 <ele>64.2</ele>
 <time>2020-03-24T13:52:35Z</time>
</trkpt>
<trkpt lat="34.271223" lon="135.200086">
 <ele>67.5</ele>
 <time>2020-03-24T13:52:35Z</time>
</trkpt>
<trkpt lat="34.271352" lon="135.200139">
 <ele>66.1</ele>
 <time>2020-03-24T13:52:35Z</time>
</trkpt>
<trkpt lat="34.271438" lon="135.200215">
 <ele>68.8</ele>
 <time>2020-03-24T13:52:35Z</time>
</trkpt>
<trkpt lat="34.271541" lon="135.200311">
 <ele>68.3</ele>
 <time>2020-03-24T13:52:35Z</time>
</trkpt>
<trkpt lat="34.271661" lon="135.200375">
 <ele>67.7</ele>
 <time>2020-03-24T13:52:35Z</time>
</trkpt>
<trkpt lat="34.271738" lon="135.200483">
 <ele>70</ele>
 <time>2020-03-24T13:52:36Z</time>
</trkpt>
<trkpt lat="34.271798" lon="135.200547">
 <ele>72.2</ele>
 <time>2020-03-24T13:52:36Z</time>
</trkpt>
<trkpt lat="34.271893" lon="135.200558">
 <ele>70.7</ele>
 <time>2020-03-24T13:52:36Z</time>
</trkpt>
<trkpt lat="34.272013" lon="135.200590">
 <ele>70.5</ele>
 <time>2020-03-24T13:52:36Z</time>
</trkpt>
<trkpt lat="34.272116" lon="135.200612">
 <ele>68.1</ele>
 <time>2020-03-24T13:52:36Z</time>
</trkpt>
<trkpt lat="34.272193" lon="135.200676">
 <ele>72.2</ele>
 <time>2020-03-24T13:52:36Z</time>
</trkpt>
<trkpt lat="34.272279" lon="135.200740">
 <ele>73.5</ele>
 <time>2020-03-24T13:52:36Z</time>
</trkpt>
<trkpt lat="34.272373" lon="135.200783">
 <ele>72.3</ele>
 <time>2020-03-24T13:52:36Z</time>
</trkpt>
<trkpt lat="34.272476" lon="135.200805">
 <ele>71.3</ele>
 <time>2020-03-24T13:52:36Z</time>
</trkpt>
<trkpt lat="34.272545" lon="135.200880">
 <ele>70.9</ele>
 <time>2020-03-24T13:52:37Z</time>
</trkpt>
<trkpt lat="34.272614" lon="135.201008">
 <ele>72.6</ele>
 <time>2020-03-24T13:52:37Z</time>
</trkpt>
<trkpt lat="34.272691" lon="135.201126">
 <ele>72.6</ele>
 <time>2020-03-24T13:52:37Z</time>
</trkpt>
<trkpt lat="34.272751" lon="135.201212">
 <ele>73.8</ele>
 <time>2020-03-24T13:52:37Z</time>
</trkpt>
<trkpt lat="34.272820" lon="135.201266">
 <ele>72.3</ele>
 <time>2020-03-24T13:52:37Z</time>
</trkpt>
<trkpt lat="34.272871" lon="135.201384">
 <ele>75.1</ele>
 <time>2020-03-24T13:52:37Z</time>
</trkpt>
<trkpt lat="34.272940" lon="135.201448">
 <ele>75.3</ele>
 <time>2020-03-24T13:52:37Z</time>
</trkpt>
<trkpt lat="34.273043" lon="135.201513">
 <ele>74.8</ele>
 <time>2020-03-24T13:52:37Z</time>
</trkpt>
<trkpt lat="34.273154" lon="135.201641">
 <ele>77.4</ele>
 <time>2020-03-24T13:52:37Z</time>
</trkpt>
<trkpt lat="34.273317" lon="135.201727">
 <ele>77.8</ele>
 <time>2020-03-24T13:52:37Z</time>
</trkpt>
<trkpt lat="34.273412" lon="135.201759">
 <ele>77.7</ele>
 <time>2020-03-24T13:52:38Z</time>
</trkpt>
<trkpt lat="34.273523" lon="135.201813">
 <ele>78.2</ele>
 <time>2020-03-24T13:52:38Z</time>
</trkpt>
<trkpt lat="34.273592" lon="135.201888">
 <ele>80.1</ele>
 <time>2020-03-24T13:52:38Z</time>
</trkpt>
<trkpt lat="34.273678" lon="135.201888">
 <ele>81.9</ele>
 <time>2020-03-24T13:52:38Z</time>
</trkpt>
<trkpt lat="34.273729" lon="135.201942">
 <ele>81.6</ele>
 <time>2020-03-24T13:52:38Z</time>
</trkpt>
<trkpt lat="34.273824" lon="135.202006">
 <ele>83.5</ele>
 <time>2020-03-24T13:52:38Z</time>
</trkpt>
<trkpt lat="34.273927" lon="135.202092">
 <ele>85.1</ele>
 <time>2020-03-24T13:52:38Z</time>
</trkpt>
<trkpt lat="34.274038" lon="135.202092">
 <ele>86.3</ele>
 <time>2020-03-24T13:52:38Z</time>
</trkpt>
<trkpt lat="34.274141" lon="135.202103">
 <ele>87.6</ele>
 <time>2020-03-24T13:52:38Z</time>
</trkpt>
<trkpt lat="34.274227" lon="135.202114">
 <ele>89.5</ele>
 <time>2020-03-24T13:52:39Z</time>
</trkpt>
<trkpt lat="34.274330" lon="135.202146">
 <ele>90.7</ele>
 <time>2020-03-24T13:52:39Z</time>
</trkpt>
<trkpt lat="34.274562" lon="135.202124">
 <ele>98.9</ele>
 <time>2020-03-24T13:52:39Z</time>
</trkpt>
<trkpt lat="34.274674" lon="135.201996">
 <ele>100.5</ele>
 <time>2020-03-24T13:52:39Z</time>
</trkpt>
<trkpt lat="34.274940" lon="135.201759">
 <ele>109.6</ele>
 <time>2020-03-24T13:52:39Z</time>
</trkpt>
<trkpt lat="34.275068" lon="135.201481">
 <ele>121.5</ele>
 <time>2020-03-24T13:52:39Z</time>
</trkpt>
<trkpt lat="34.275223" lon="135.201309">
 <ele>127.2</ele>
 <time>2020-03-24T13:52:39Z</time>
</trkpt>
<trkpt lat="34.275291" lon="135.201277">
 <ele>131.6</ele>
 <time>2020-03-24T13:52:39Z</time>
</trkpt>
<trkpt lat="34.275309" lon="135.201427">
 <ele>139.7</ele>
 <time>2020-03-24T13:52:39Z</time>
</trkpt>
<trkpt lat="34.275377" lon="135.201534">
 <ele>142.8</ele>
 <time>2020-03-24T13:52:39Z</time>
</trkpt>
<trkpt lat="34.275532" lon="135.201599">
 <ele>147.4</ele>
 <time>2020-03-24T13:52:40Z</time>
</trkpt>
<trkpt lat="34.275712" lon="135.201599">
 <ele>157.6</ele>
 <time>2020-03-24T13:52:40Z</time>
</trkpt>
<trkpt lat="34.275875" lon="135.201599">
 <ele>171.2</ele>
 <time>2020-03-24T13:52:40Z</time>
</trkpt>
<trkpt lat="34.275987" lon="135.201566">
 <ele>180.4</ele>
 <time>2020-03-24T13:52:40Z</time>
</trkpt>
<trkpt lat="34.276133" lon="135.201631">
 <ele>185.5</ele>
 <time>2020-03-24T13:52:40Z</time>
</trkpt>
<trkpt lat="34.276279" lon="135.201577">
 <ele>195</ele>
 <time>2020-03-24T13:52:40Z</time>
</trkpt>
<trkpt lat="34.276416" lon="135.201577">
 <ele>204.8</ele>
 <time>2020-03-24T13:52:40Z</time>
</trkpt>
<trkpt lat="34.276682" lon="135.201545">
 <ele>217.2</ele>
 <time>2020-03-24T13:52:40Z</time>
</trkpt>
<trkpt lat="34.276836" lon="135.201523">
 <ele>227.8</ele>
 <time>2020-03-24T13:52:40Z</time>
</trkpt>
<trkpt lat="34.276957" lon="135.201427">
 <ele>232.6</ele>
 <time>2020-03-24T13:52:40Z</time>
</trkpt>
<trkpt lat="34.277077" lon="135.201298">
 <ele>237.9</ele>
 <time>2020-03-24T13:52:41Z</time>
</trkpt>
<trkpt lat="34.277017" lon="135.201191">
 <ele>237</ele>
 <time>2020-03-24T13:52:41Z</time>
</trkpt>
<trkpt lat="34.276836" lon="135.200998">
 <ele>238.6</ele>
 <time>2020-03-24T13:52:41Z</time>
</trkpt>
<trkpt lat="34.276811" lon="135.200912">
 <ele>239.9</ele>
 <time>2020-03-24T13:52:41Z</time>
</trkpt>
<trkpt lat="34.276811" lon="135.200912">
 <ele>239.9</ele>
 <time>2020-03-24T13:52:41Z</time>
</trkpt>
<trkpt lat="34.276836" lon="135.200998">
 <ele>238.6</ele>
 <time>2020-03-24T13:52:41Z</time>
</trkpt>
<trkpt lat="34.277017" lon="135.201191">
 <ele>237</ele>
 <time>2020-03-24T13:52:41Z</time>
</trkpt>
<trkpt lat="34.277077" lon="135.201298">
 <ele>237.9</ele>
 <time>2020-03-24T13:52:41Z</time>
</trkpt>
<trkpt lat="34.276957" lon="135.201427">
 <ele>232.6</ele>
 <time>2020-03-24T13:52:41Z</time>
</trkpt>
<trkpt lat="34.276836" lon="135.201523">
 <ele>227.8</ele>
 <time>2020-03-24T13:52:42Z</time>
</trkpt>
<trkpt lat="34.276682" lon="135.201545">
 <ele>217.2</ele>
 <time>2020-03-24T13:52:42Z</time>
</trkpt>
<trkpt lat="34.276416" lon="135.201577">
 <ele>204.8</ele>
 <time>2020-03-24T13:52:42Z</time>
</trkpt>
<trkpt lat="34.276279" lon="135.201577">
 <ele>195</ele>
 <time>2020-03-24T13:52:42Z</time>
</trkpt>
<trkpt lat="34.276133" lon="135.201631">
 <ele>185.5</ele>
 <time>2020-03-24T13:52:42Z</time>
</trkpt>
<trkpt lat="34.275987" lon="135.201566">
 <ele>180.4</ele>
 <time>2020-03-24T13:52:42Z</time>
</trkpt>
<trkpt lat="34.275875" lon="135.201599">
 <ele>171.2</ele>
 <time>2020-03-24T13:52:42Z</time>
</trkpt>
<trkpt lat="34.275712" lon="135.201599">
 <ele>157.6</ele>
 <time>2020-03-24T13:52:42Z</time>
</trkpt>
<trkpt lat="34.275532" lon="135.201599">
 <ele>147.4</ele>
 <time>2020-03-24T13:52:42Z</time>
</trkpt>
<trkpt lat="34.275377" lon="135.201534">
 <ele>142.8</ele>
 <time>2020-03-24T13:52:42Z</time>
</trkpt>
<trkpt lat="34.275309" lon="135.201427">
 <ele>139.7</ele>
 <time>2020-03-24T13:52:43Z</time>
</trkpt>
<trkpt lat="34.275291" lon="135.201277">
 <ele>131.6</ele>
 <time>2020-03-24T13:52:43Z</time>
</trkpt>
<trkpt lat="34.275223" lon="135.201309">
 <ele>127.2</ele>
 <time>2020-03-24T13:52:43Z</time>
</trkpt>
<trkpt lat="34.275068" lon="135.201481">
 <ele>121.5</ele>
 <time>2020-03-24T13:52:43Z</time>
</trkpt>
<trkpt lat="34.274940" lon="135.201759">
 <ele>109.6</ele>
 <time>2020-03-24T13:52:43Z</time>
</trkpt>
<trkpt lat="34.274674" lon="135.201996">
 <ele>100.5</ele>
 <time>2020-03-24T13:52:43Z</time>
</trkpt>
<trkpt lat="34.274562" lon="135.202124">
 <ele>98.9</ele>
 <time>2020-03-24T13:52:43Z</time>
</trkpt>
<trkpt lat="34.274330" lon="135.202146">
 <ele>90.7</ele>
 <time>2020-03-24T13:52:43Z</time>
</trkpt>
<trkpt lat="34.274227" lon="135.202114">
 <ele>89.5</ele>
 <time>2020-03-24T13:52:43Z</time>
</trkpt>
<trkpt lat="34.274141" lon="135.202103">
 <ele>87.6</ele>
 <time>2020-03-24T13:52:44Z</time>
</trkpt>
<trkpt lat="34.274038" lon="135.202092">
 <ele>86.3</ele>
 <time>2020-03-24T13:52:44Z</time>
</trkpt>
<trkpt lat="34.273927" lon="135.202092">
 <ele>85.1</ele>
 <time>2020-03-24T13:52:44Z</time>
</trkpt>
<trkpt lat="34.273824" lon="135.202006">
 <ele>83.5</ele>
 <time>2020-03-24T13:52:44Z</time>
</trkpt>
<trkpt lat="34.273729" lon="135.201942">
 <ele>81.6</ele>
 <time>2020-03-24T13:52:44Z</time>
</trkpt>
<trkpt lat="34.273678" lon="135.201888">
 <ele>81.9</ele>
 <time>2020-03-24T13:52:44Z</time>
</trkpt>
<trkpt lat="34.273592" lon="135.201888">
 <ele>80.1</ele>
 <time>2020-03-24T13:52:44Z</time>
</trkpt>
<trkpt lat="34.273523" lon="135.201813">
 <ele>78.2</ele>
 <time>2020-03-24T13:52:44Z</time>
</trkpt>
<trkpt lat="34.273412" lon="135.201759">
 <ele>77.7</ele>
 <time>2020-03-24T13:52:44Z</time>
</trkpt>
<trkpt lat="34.273317" lon="135.201727">
 <ele>77.8</ele>
 <time>2020-03-24T13:52:44Z</time>
</trkpt>
<trkpt lat="34.273154" lon="135.201641">
 <ele>77.4</ele>
 <time>2020-03-24T13:52:45Z</time>
</trkpt>
<trkpt lat="34.273043" lon="135.201513">
 <ele>74.8</ele>
 <time>2020-03-24T13:52:45Z</time>
</trkpt>
<trkpt lat="34.272940" lon="135.201448">
 <ele>75.3</ele>
 <time>2020-03-24T13:52:45Z</time>
</trkpt>
<trkpt lat="34.272871" lon="135.201384">
 <ele>75.1</ele>
 <time>2020-03-24T13:52:45Z</time>
</trkpt>
<trkpt lat="34.272820" lon="135.201266">
 <ele>72.3</ele>
 <time>2020-03-24T13:52:45Z</time>
</trkpt>
<trkpt lat="34.272751" lon="135.201212">
 <ele>73.8</ele>
 <time>2020-03-24T13:52:45Z</time>
</trkpt>
<trkpt lat="34.272691" lon="135.201126">
 <ele>72.6</ele>
 <time>2020-03-24T13:52:45Z</time>
</trkpt>
<trkpt lat="34.272614" lon="135.201008">
 <ele>72.6</ele>
 <time>2020-03-24T13:52:45Z</time>
</trkpt>
<trkpt lat="34.272545" lon="135.200880">
 <ele>70.9</ele>
 <time>2020-03-24T13:52:45Z</time>
</trkpt>
<trkpt lat="34.272476" lon="135.200805">
 <ele>71.3</ele>
 <time>2020-03-24T13:52:46Z</time>
</trkpt>
<trkpt lat="34.272373" lon="135.200783">
 <ele>72.3</ele>
 <time>2020-03-24T13:52:46Z</time>
</trkpt>
<trkpt lat="34.272279" lon="135.200740">
 <ele>73.5</ele>
 <time>2020-03-24T13:52:46Z</time>
</trkpt>
<trkpt lat="34.272193" lon="135.200676">
 <ele>72.2</ele>
 <time>2020-03-24T13:52:46Z</time>
</trkpt>
<trkpt lat="34.272116" lon="135.200612">
 <ele>68.1</ele>
 <time>2020-03-24T13:52:46Z</time>
</trkpt>
<trkpt lat="34.272013" lon="135.200590">
 <ele>70.5</ele>
 <time>2020-03-24T13:52:46Z</time>
</trkpt>
<trkpt lat="34.271893" lon="135.200558">
 <ele>70.7</ele>
 <time>2020-03-24T13:52:46Z</time>
</trkpt>
<trkpt lat="34.271798" lon="135.200547">
 <ele>72.2</ele>
 <time>2020-03-24T13:52:46Z</time>
</trkpt>
<trkpt lat="34.271738" lon="135.200483">
 <ele>70</ele>
 <time>2020-03-24T13:52:46Z</time>
</trkpt>
<trkpt lat="34.271661" lon="135.200375">
 <ele>67.7</ele>
 <time>2020-03-24T13:52:46Z</time>
</trkpt>
<trkpt lat="34.271541" lon="135.200311">
 <ele>68.3</ele>
 <time>2020-03-24T13:52:47Z</time>
</trkpt>
<trkpt lat="34.271438" lon="135.200215">
 <ele>68.8</ele>
 <time>2020-03-24T13:52:47Z</time>
</trkpt>
<trkpt lat="34.271352" lon="135.200139">
 <ele>66.1</ele>
 <time>2020-03-24T13:52:47Z</time>
</trkpt>
<trkpt lat="34.271223" lon="135.200086">
 <ele>67.5</ele>
 <time>2020-03-24T13:52:47Z</time>
</trkpt>
<trkpt lat="34.271120" lon="135.200064">
 <ele>64.2</ele>
 <time>2020-03-24T13:52:47Z</time>
</trkpt>
<trkpt lat="34.271077" lon="135.200043">
 <ele>64.7</ele>
 <time>2020-03-24T13:52:47Z</time>
</trkpt>
<trkpt lat="34.270948" lon="135.199978">
 <ele>62.8</ele>
 <time>2020-03-24T13:52:47Z</time>
</trkpt>
<trkpt lat="34.270837" lon="135.199925">
 <ele>66</ele>
 <time>2020-03-24T13:52:47Z</time>
</trkpt>
<trkpt lat="34.270777" lon="135.199978">
 <ele>66</ele>
 <time>2020-03-24T13:52:47Z</time>
</trkpt>
<trkpt lat="34.270777" lon="135.200064">
 <ele>66.3</ele>
 <time>2020-03-24T13:52:47Z</time>
</trkpt>
<trkpt lat="34.270794" lon="135.200107">
 <ele>66.3</ele>
 <time>2020-03-24T13:52:48Z</time>
</trkpt>
<trkpt lat="34.270803" lon="135.200193">
 <ele>67.9</ele>
 <time>2020-03-24T13:52:48Z</time>
</trkpt>
<trkpt lat="34.270837" lon="135.200236">
 <ele>70.6</ele>
 <time>2020-03-24T13:52:48Z</time>
</trkpt>
<trkpt lat="34.270845" lon="135.200311">
 <ele>69.2</ele>
 <time>2020-03-24T13:52:48Z</time>
</trkpt>
<trkpt lat="34.270820" lon="135.200375">
 <ele>66.2</ele>
 <time>2020-03-24T13:52:48Z</time>
</trkpt>
<trkpt lat="34.270777" lon="135.200483">
 <ele>65.3</ele>
 <time>2020-03-24T13:52:48Z</time>
</trkpt>
<trkpt lat="34.270708" lon="135.200536">
 <ele>65.3</ele>
 <time>2020-03-24T13:52:48Z</time>
</trkpt>
<trkpt lat="34.270614" lon="135.200601">
 <ele>65.6</ele>
 <time>2020-03-24T13:52:48Z</time>
</trkpt>
<trkpt lat="34.270579" lon="135.200687">
 <ele>66.7</ele>
 <time>2020-03-24T13:52:48Z</time>
</trkpt>
<trkpt lat="34.270597" lon="135.200815">
 <ele>67.1</ele>
 <time>2020-03-24T13:52:49Z</time>
</trkpt>
<trkpt lat="34.270631" lon="135.200923">
 <ele>66</ele>
 <time>2020-03-24T13:52:49Z</time>
</trkpt>
<trkpt lat="34.270682" lon="135.201051">
 <ele>64.1</ele>
 <time>2020-03-24T13:52:49Z</time>
</trkpt>
<trkpt lat="34.270734" lon="135.201169">
 <ele>62.9</ele>
 <time>2020-03-24T13:52:49Z</time>
</trkpt>
<trkpt lat="34.270794" lon="135.201309">
 <ele>57.4</ele>
 <time>2020-03-24T13:52:49Z</time>
</trkpt>
<trkpt lat="34.270863" lon="135.201427">
 <ele>58.7</ele>
 <time>2020-03-24T13:52:49Z</time>
</trkpt>
<trkpt lat="34.270966" lon="135.201534">
 <ele>58.3</ele>
 <time>2020-03-24T13:52:49Z</time>
</trkpt>
<trkpt lat="34.271086" lon="135.201663">
 <ele>60.2</ele>
 <time>2020-03-24T13:52:49Z</time>
</trkpt>
<trkpt lat="34.271103" lon="135.201749">
 <ele>60.6</ele>
 <time>2020-03-24T13:52:49Z</time>
</trkpt>
<trkpt lat="34.271094" lon="135.201813">
 <ele>61.7</ele>
 <time>2020-03-24T13:52:49Z</time>
</trkpt>
<trkpt lat="34.271077" lon="135.201910">
 <ele>64.1</ele>
 <time>2020-03-24T13:52:50Z</time>
</trkpt>
<trkpt lat="34.271009" lon="135.202038">
 <ele>63</ele>
 <time>2020-03-24T13:52:50Z</time>
</trkpt>
<trkpt lat="34.270974" lon="135.202156">
 <ele>63.4</ele>
 <time>2020-03-24T13:52:50Z</time>
</trkpt>
<trkpt lat="34.270914" lon="135.202296">
 <ele>64.2</ele>
 <time>2020-03-24T13:52:50Z</time>
</trkpt>
<trkpt lat="34.270828" lon="135.202285">
 <ele>61.6</ele>
 <time>2020-03-24T13:52:50Z</time>
</trkpt>
<trkpt lat="34.270751" lon="135.202307">
 <ele>61.1</ele>
 <time>2020-03-24T13:52:50Z</time>
</trkpt>
<trkpt lat="34.270700" lon="135.202328">
 <ele>59.1</ele>
 <time>2020-03-24T13:52:50Z</time>
</trkpt>
<trkpt lat="34.270639" lon="135.202221">
 <ele>55.6</ele>
 <time>2020-03-24T13:52:50Z</time>
</trkpt>
<trkpt lat="34.270639" lon="135.202124">
 <ele>53.4</ele>
 <time>2020-03-24T13:52:50Z</time>
</trkpt>
<trkpt lat="34.270631" lon="135.202038">
 <ele>52</ele>
 <time>2020-03-24T13:52:51Z</time>
</trkpt>
<trkpt lat="34.270631" lon="135.201942">
 <ele>50.7</ele>
 <time>2020-03-24T13:52:51Z</time>
</trkpt>
<trkpt lat="34.270579" lon="135.201878">
 <ele>48.7</ele>
 <time>2020-03-24T13:52:51Z</time>
</trkpt>
<trkpt lat="34.270528" lon="135.201899">
 <ele>48.4</ele>
 <time>2020-03-24T13:52:51Z</time>
</trkpt>
<trkpt lat="34.270494" lon="135.201974">
 <ele>48</ele>
 <time>2020-03-24T13:52:51Z</time>
</trkpt>
<trkpt lat="34.270476" lon="135.202103">
 <ele>47.4</ele>
 <time>2020-03-24T13:52:51Z</time>
</trkpt>
<trkpt lat="34.270588" lon="135.202511">
 <ele>52.5</ele>
 <time>2020-03-24T13:52:51Z</time>
</trkpt>
<trkpt lat="34.270682" lon="135.202747">
 <ele>54.2</ele>
 <time>2020-03-24T13:52:51Z</time>
</trkpt>
<trkpt lat="34.270691" lon="135.202897">
 <ele>54.7</ele>
 <time>2020-03-24T13:52:51Z</time>
</trkpt>
<trkpt lat="34.270614" lon="135.202961">
 <ele>55.9</ele>
 <time>2020-03-24T13:52:51Z</time>
</trkpt>
<trkpt lat="34.270511" lon="135.203058">
 <ele>57.1</ele>
 <time>2020-03-24T13:52:52Z</time>
</trkpt>
<trkpt lat="34.270399" lon="135.203186">
 <ele>56.3</ele>
 <time>2020-03-24T13:52:52Z</time>
</trkpt>
<trkpt lat="34.270356" lon="135.203272">
 <ele>55.8</ele>
 <time>2020-03-24T13:52:52Z</time>
</trkpt>
<trkpt lat="34.270150" lon="135.203498">
 <ele>52.7</ele>
 <time>2020-03-24T13:52:52Z</time>
</trkpt>
<trkpt lat="34.270039" lon="135.203551">
 <ele>49.8</ele>
 <time>2020-03-24T13:52:52Z</time>
</trkpt>
<trkpt lat="34.269936" lon="135.203573">
 <ele>48.6</ele>
 <time>2020-03-24T13:52:52Z</time>
</trkpt>
<trkpt lat="34.269773" lon="135.203583">
 <ele>46.1</ele>
 <time>2020-03-24T13:52:52Z</time>
</trkpt>
<trkpt lat="34.269609" lon="135.203605">
 <ele>43.5</ele>
 <time>2020-03-24T13:52:52Z</time>
</trkpt>
<trkpt lat="34.269515" lon="135.203626">
 <ele>41.2</ele>
 <time>2020-03-24T13:52:52Z</time>
</trkpt>
<trkpt lat="34.269421" lon="135.203605">
 <ele>40.3</ele>
 <time>2020-03-24T13:52:52Z</time>
</trkpt>
<trkpt lat="34.269335" lon="135.203583">
 <ele>37.8</ele>
 <time>2020-03-24T13:52:53Z</time>
</trkpt>
<trkpt lat="34.269249" lon="135.203562">
 <ele>36.5</ele>
 <time>2020-03-24T13:52:53Z</time>
</trkpt>
<trkpt lat="34.269155" lon="135.203519">
 <ele>35</ele>
 <time>2020-03-24T13:52:53Z</time>
</trkpt>
<trkpt lat="34.269120" lon="135.203401">
 <ele>34.6</ele>
 <time>2020-03-24T13:52:53Z</time>
</trkpt>
<trkpt lat="34.269077" lon="135.203294">
 <ele>34.7</ele>
 <time>2020-03-24T13:52:53Z</time>
</trkpt>
<trkpt lat="34.269043" lon="135.203176">
 <ele>35.7</ele>
 <time>2020-03-24T13:52:53Z</time>
</trkpt>
<trkpt lat="34.268957" lon="135.203079">
 <ele>36</ele>
 <time>2020-03-24T13:52:53Z</time>
</trkpt>
<trkpt lat="34.268803" lon="135.202983">
 <ele>36.7</ele>
 <time>2020-03-24T13:52:53Z</time>
</trkpt>
<trkpt lat="34.268743" lon="135.202918">
 <ele>35.8</ele>
 <time>2020-03-24T13:52:53Z</time>
</trkpt>
<trkpt lat="34.268743" lon="135.202768">
 <ele>35.2</ele>
 <time>2020-03-24T13:52:53Z</time>
</trkpt>
<trkpt lat="34.268657" lon="135.202714">
 <ele>33.8</ele>
 <time>2020-03-24T13:52:54Z</time>
</trkpt>
<trkpt lat="34.268459" lon="135.202639">
 <ele>30.7</ele>
 <time>2020-03-24T13:52:54Z</time>
</trkpt>
<trkpt lat="34.268339" lon="135.202639">
 <ele>28.8</ele>
 <time>2020-03-24T13:52:54Z</time>
</trkpt>
<trkpt lat="34.268236" lon="135.202586">
 <ele>27.9</ele>
 <time>2020-03-24T13:52:54Z</time>
</trkpt>
<trkpt lat="34.268065" lon="135.202521">
 <ele>26.8</ele>
 <time>2020-03-24T13:52:54Z</time>
</trkpt>
<trkpt lat="34.267893" lon="135.202435">
 <ele>25.8</ele>
 <time>2020-03-24T13:52:54Z</time>
</trkpt>
<trkpt lat="34.267730" lon="135.202339">
 <ele>24.7</ele>
 <time>2020-03-24T13:52:54Z</time>
</trkpt>
<trkpt lat="34.267653" lon="135.202328">
 <ele>24.6</ele>
 <time>2020-03-24T13:52:54Z</time>
</trkpt>
<trkpt lat="34.267541" lon="135.202285">
 <ele>23.5</ele>
 <time>2020-03-24T13:52:54Z</time>
</trkpt>
<trkpt lat="34.267507" lon="135.202435">
 <ele>23.1</ele>
 <time>2020-03-24T13:52:54Z</time>
</trkpt>
<trkpt lat="34.267472" lon="135.202629">
 <ele>19.8</ele>
 <time>2020-03-24T13:52:55Z</time>
</trkpt>
<trkpt lat="34.267447" lon="135.202822">
 <ele>18.9</ele>
 <time>2020-03-24T13:52:55Z</time>
</trkpt>
<trkpt lat="34.267386" lon="135.202843">
 <ele>18.4</ele>
 <time>2020-03-24T13:52:55Z</time>
</trkpt>
<trkpt lat="34.267215" lon="135.202811">
 <ele>17.4</ele>
 <time>2020-03-24T13:52:55Z</time>
</trkpt>
<trkpt lat="34.267129" lon="135.202789">
 <ele>17.5</ele>
 <time>2020-03-24T13:52:55Z</time>
</trkpt>
<trkpt lat="34.267009" lon="135.202822">
 <ele>18.5</ele>
 <time>2020-03-24T13:52:55Z</time>
</trkpt>
<trkpt lat="34.266966" lon="135.202875">
 <ele>19</ele>
 <time>2020-03-24T13:52:55Z</time>
</trkpt>
<trkpt lat="34.266966" lon="135.202961">
 <ele>19.8</ele>
 <time>2020-03-24T13:52:55Z</time>
</trkpt>
<trkpt lat="34.266932" lon="135.203101">
 <ele>19.5</ele>
 <time>2020-03-24T13:52:55Z</time>
</trkpt>
<trkpt lat="34.266880" lon="135.203315">
 <ele>19.8</ele>
 <time>2020-03-24T13:52:56Z</time>
</trkpt>
<trkpt lat="34.266854" lon="135.203508">
 <ele>20.1</ele>
 <time>2020-03-24T13:52:56Z</time>
</trkpt>
<trkpt lat="34.266811" lon="135.203937">
 <ele>20</ele>
 <time>2020-03-24T13:52:56Z</time>
</trkpt>
<trkpt lat="34.266786" lon="135.204163">
 <ele>19.5</ele>
 <time>2020-03-24T13:52:56Z</time>
</trkpt>
<trkpt lat="34.266743" lon="135.204291">
 <ele>19</ele>
 <time>2020-03-24T13:52:56Z</time>
</trkpt>
<trkpt lat="34.266683" lon="135.204495">
 <ele>18.6</ele>
 <time>2020-03-24T13:52:56Z</time>
</trkpt>
<trkpt lat="34.266674" lon="135.204592">
 <ele>18.6</ele>
 <time>2020-03-24T13:52:56Z</time>
</trkpt>
<trkpt lat="34.266666" lon="135.204710">
 <ele>18.7</ele>
 <time>2020-03-24T13:52:56Z</time>
</trkpt>
<trkpt lat="34.266571" lon="135.204688">
 <ele>18.3</ele>
 <time>2020-03-24T13:52:56Z</time>
</trkpt>
<trkpt lat="34.266425" lon="135.204635">
 <ele>18.2</ele>
 <time>2020-03-24T13:52:56Z</time>
</trkpt>
<trkpt lat="34.266305" lon="135.204635">
 <ele>17.9</ele>
 <time>2020-03-24T13:52:57Z</time>
</trkpt>
<trkpt lat="34.266211" lon="135.204581">
 <ele>17.4</ele>
 <time>2020-03-24T13:52:57Z</time>
</trkpt>
<trkpt lat="34.266090" lon="135.204538">
 <ele>17.2</ele>
 <time>2020-03-24T13:52:57Z</time>
</trkpt>
<trkpt lat="34.265902" lon="135.204474">
 <ele>16.3</ele>
 <time>2020-03-24T13:52:57Z</time>
</trkpt>
<trkpt lat="34.265704" lon="135.204463">
 <ele>15.8</ele>
 <time>2020-03-24T13:52:57Z</time>
</trkpt>
<trkpt lat="34.265567" lon="135.204399">
 <ele>15.6</ele>
 <time>2020-03-24T13:52:57Z</time>
</trkpt>
<trkpt lat="34.265507" lon="135.204463">
 <ele>15.6</ele>
 <time>2020-03-24T13:52:57Z</time>
</trkpt>
<trkpt lat="34.265447" lon="135.204646">
 <ele>15.5</ele>
 <time>2020-03-24T13:52:57Z</time>
</trkpt>
<trkpt lat="34.265387" lon="135.204806">
 <ele>14.8</ele>
 <time>2020-03-24T13:52:57Z</time>
</trkpt>
<trkpt lat="34.265327" lon="135.204935">
 <ele>14</ele>
 <time>2020-03-24T13:52:57Z</time>
</trkpt>
<trkpt lat="34.265241" lon="135.204946">
 <ele>13.4</ele>
 <time>2020-03-24T13:52:58Z</time>
</trkpt>
<trkpt lat="34.265138" lon="135.205000">
 <ele>13</ele>
 <time>2020-03-24T13:52:58Z</time>
</trkpt>
<trkpt lat="34.265086" lon="135.205075">
 <ele>12.7</ele>
 <time>2020-03-24T13:52:58Z</time>
</trkpt>
<trkpt lat="34.265043" lon="135.205161">
 <ele>12.9</ele>
 <time>2020-03-24T13:52:58Z</time>
</trkpt>
<trkpt lat="34.264949" lon="135.205225">
 <ele>13.2</ele>
 <time>2020-03-24T13:52:58Z</time>
</trkpt>
<trkpt lat="34.264854" lon="135.205397">
 <ele>15</ele>
 <time>2020-03-24T13:52:58Z</time>
</trkpt>
<trkpt lat="34.264786" lon="135.205579">
 <ele>15.4</ele>
 <time>2020-03-24T13:52:58Z</time>
</trkpt>
<trkpt lat="34.264709" lon="135.205901">
 <ele>15.9</ele>
 <time>2020-03-24T13:52:58Z</time>
</trkpt>
<trkpt lat="34.264648" lon="135.205997">
 <ele>16.1</ele>
 <time>2020-03-24T13:52:58Z</time>
</trkpt>
<trkpt lat="34.264545" lon="135.205997">
 <ele>16.1</ele>
 <time>2020-03-24T13:52:58Z</time>
</trkpt>
<trkpt lat="34.264339" lon="135.205987">
 <ele>15.5</ele>
 <time>2020-03-24T13:52:59Z</time>
</trkpt>
<trkpt lat="34.263970" lon="135.205965">
 <ele>15.2</ele>
 <time>2020-03-24T13:52:59Z</time>
</trkpt>
<trkpt lat="34.263910" lon="135.206115">
 <ele>15.4</ele>
 <time>2020-03-24T13:52:59Z</time>
</trkpt>
<trkpt lat="34.263867" lon="135.206276">
 <ele>15.6</ele>
 <time>2020-03-24T13:52:59Z</time>
</trkpt>
<trkpt lat="34.263850" lon="135.206523">
 <ele>16.2</ele>
 <time>2020-03-24T13:52:59Z</time>
</trkpt>
<trkpt lat="34.263756" lon="135.206545">
 <ele>15.8</ele>
 <time>2020-03-24T13:52:59Z</time>
</trkpt>
<trkpt lat="34.263455" lon="135.206555">
 <ele>15.3</ele>
 <time>2020-03-24T13:52:59Z</time>
</trkpt>
<trkpt lat="34.263146" lon="135.206512">
 <ele>14.8</ele>
 <time>2020-03-24T13:52:59Z</time>
</trkpt>
<trkpt lat="34.262932" lon="135.206416">
 <ele>14.3</ele>
 <time>2020-03-24T13:52:59Z</time>
</trkpt>
<trkpt lat="34.262777" lon="135.206341">
 <ele>14.1</ele>
 <time>2020-03-24T13:53:00Z</time>
</trkpt>
<trkpt lat="34.262666" lon="135.206362">
 <ele>13.9</ele>
 <time>2020-03-24T13:53:00Z</time>
</trkpt>
<trkpt lat="34.262674" lon="135.206459">
 <ele>14.1</ele>
 <time>2020-03-24T13:53:00Z</time>
</trkpt>
<trkpt lat="34.262606" lon="135.206641">
 <ele>14.3</ele>
 <time>2020-03-24T13:53:00Z</time>
</trkpt>
<trkpt lat="34.262511" lon="135.206899">
 <ele>14.5</ele>
 <time>2020-03-24T13:53:00Z</time>
</trkpt>
<trkpt lat="34.262477" lon="135.207092">
 <ele>14.8</ele>
 <time>2020-03-24T13:53:00Z</time>
</trkpt>
</trkseg>
</trk>
</gpx>

